Location: Ariel
(45.9570°N, 122.5700°W)
Time: 21:05:27
(UTC-08:00)

PCSat - Visible Passes

Search period start: 18 November 2019 00:00
Search period end: 28 November 2019 00:00
Orbit: 784 x 795 km, 67.1° (Epoch: 17 November)

Date Brightness Start Highest point End Pass type
(mag) Time Alt. Az. Time Alt. Az. Time Alt. Az.
18 Nov 10.7 03:56:28 40° E 03:56:28 40° E 04:00:24 10° SE visible
18 Nov 10.4 05:37:15 27° W 05:38:21 30° WSW 05:42:59 10° S visible
18 Nov 11.2 18:34:50 10° SSE 18:36:50 19° SE 18:36:50 19° SE visible
18 Nov 12.0 20:16:50 10° SW 20:17:37 14° SW 20:17:37 14° SW visible
19 Nov 11.8 03:27:17 20° ESE 03:27:17 20° ESE 03:29:05 10° ESE visible
19 Nov 10.1 05:08:04 39° SW 05:08:04 39° SW 05:12:31 10° S visible
19 Nov 11.0 18:04:46 10° SSE 18:07:40 18° ESE 18:07:40 18° ESE visible
19 Nov 11.0 19:45:43 10° SW 19:48:26 30° SW 19:48:26 30° SW visible
20 Nov 10.7 04:38:58 31° S 04:38:58 31° S 04:41:52 10° SSE visible
20 Nov 11.3 17:35:13 10° SE 17:37:37 13° ESE 17:38:24 13° E visible
20 Nov 9.8 19:14:43 10° SSW 19:19:09 61° SSW 19:19:09 61° SSW visible
21 Nov 11.7 04:09:54 17° SSE 04:09:54 17° SSE 04:11:05 10° SSE visible
21 Nov 9.5 18:43:51 10° SSW 18:49:12 64° ESE 18:49:47 59° E visible
21 Nov 11.9 20:28:28 10° W 20:30:32 19° W 20:30:32 19° W visible
22 Nov 9.8 18:13:08 10° S 18:18:18 47° ESE 18:20:19 32° ENE visible
22 Nov 11.1 19:56:58 10° WSW 20:01:04 32° WNW 20:01:04 32° WNW visible
23 Nov 10.2 17:42:34 10° S 17:47:25 35° ESE 17:50:44 18° ENE visible
23 Nov 10.5 19:25:36 10° WSW 19:30:44 42° NW 19:31:29 40° NNW visible
24 Nov 10.7 17:12:13 10° SSE 17:16:36 26° ESE 17:21:01 10° NE visible
24 Nov 10.1 18:54:20 10° SW 18:59:40 54° NW 19:01:48 34° N visible
24 Nov 12.3 20:41:19 10° WNW 20:42:33 13° NW 20:42:33 13° NW visible
25 Nov 9.7 18:23:12 10° SW 18:28:37 71° NW 18:32:04 23° NNE visible
25 Nov 11.9 20:09:24 10° WNW 20:12:48 18° NW 20:12:48 18° NW visible
26 Nov 9.5 17:52:11 10° SSW 17:57:37 87° ESE 18:02:15 15° NNE visible
26 Nov 11.5 19:37:39 10° W 19:41:45 21° NW 19:42:57 20° NNW visible
27 Nov 9.6 17:21:19 10° SSW 17:26:40 66° ESE 17:32:04 10° NE visible
27 Nov 11.4 19:06:01 10° W 19:10:31 26° NW 19:13:05 19° N visible
